Track GLOBALSTAR M085 now! 10-day predictions GLOBALSTAR M085 is classified as:
1 37742U 11033D 23083.48024120 -.00000074 00000-0 16498-3 0 9991 2 37742 51.9854 188.2630 0000489 125.9061 314.3352 12.62268071540689